Temp
86 86 85 84 84 84 84 83 83 83 82 82 82 83 83 83 82 82 82 81 80 81 81 81 80 81 81 81 81 81 82 82 81 81 80 80 81 79 79 79 79 79 80 79 80 80 80 81 80 80 80 80 80 80 80 80 79 80 79 79 78 78 78
85 85 85 85 84 84 84 84 84 84 83 83 83 82 84 82 82 82 82 81 81 81 81 81 80 81 81 81 81 81 81 81 81 81 80 80 80 79 80 78 79 78 79 80 80 80 80 80 80 80 80 80 80 80 80 80 79 79 79 79 78 77 78
85 85 85 85 85 85 83 84 84 84 84 85 84 84 83 82 82 82 82 82 81 81 82 81 81 81 81 81 81 81 81 81 80 80 79 80 79 80 79 79 79 79 79 80 79 79 80 80 79 79 80 79 80 79 80 80 79 79 79 79 78 78 77
83 84 85 85 84 84 84 84 84 85 86 86 85 85 83 82 83 83 83 83 82 81 81 81 81 81 81 81 81 81 80 80 80 80 80 80 79 79 78 78 78 79 78 79 79 80 80 80 79 78 78 79 79 80 80 80 80 79 79 78 78 78 78
84 85 85 84 84 84 84 84 84 84 85 87 86 84 84 84 84 84 84 84 84 82 83 83 83 82 82 82 82 81 80 80 80 80 80 80 80 79 78 78 78 79 79 79 78 78 78 78 79 79 78 79 80 79 79 79 79 79 78 78 77 77 78
84 83 83 84 85 85 85 85 86 87 86 86 85 84 85 86 86 86 85 83 83 84 83 83 82 81 81 82 82 81 81 80 80 79 79 79 79 78 78 78 78 79 79 78 78 78 78 78 78 78 78 79 80 80 80 79 79 79 78 77 77 78 78
83 83 83 84 84 85 85 86 87 87 87 87 87 87 87 88 87 87 87 85 85 83 83 83 83 82 82 82 81 81 79 79 79 79 80 79 79 78 78 78 78 79 79 77 76 77 76 76 76 76 76 77 77 78 77 77 77 77 77 77 77 77 77
84 83 83 84 86 87 87 86 86 87 87 87 87 87 87 87 87 87 86 87 86 87 86 85 84 82 82 82 82 81 80 80 80 79 79 79 78 78 79 78 78 78 78 77 77 76 75 74 75 75 75 75 74 75 76 76 76 77 77 76 76 77 78
85 83 84 86 87 88 88 86 85 85 84 84 84 84 85 86 86 86 87 87 87 86 86 88 86 84 82 82 81 80 80 79 79 78 78 78 78 79 79 79 78 78 77 77 76 75 74 73 74 74 74 73 73 73 74 75 75 76 76 76 76 76 77
82 82 83 85 87 88 86 85 84 83 82 82 82 83 84 85 85 86 86 87 88 87 87 87 87 86 83 82 81 81 79 78 78 79 80 79 79 80 80 80 78 77 77 76 73 71 72 75 74 73 72 72 72 72 73 74 75 75 76 76 76 76 76
82 81 81 83 83 84 84 84 82 81 81 81 81 83 83 83 84 85 85 87 87 87 88 87 87 86 84 83 82 80 78 78 78 78 79 79 80 81 81 80 80 77 76 74 72 71 72 73 74 73 72 71 71 72 73 74 75 74 76 76 76 76 76
80 80 80 81 82 82 82 81 81 81 81 81 82 83 82 82 84 85 85 85 87 87 87 87 87 86 84 84 81 79 78 78 78 79 79 79 79 80 80 79 77 77 76 75 73 72 73 73 72 72 70 71 72 73 74 74 74 75 75 77 76 75 75
81 80 80 81 80 81 81 80 80 80 80 82 83 83 83 83 84 85 83 84 86 87 87 86 85 84 84 83 82 78 78 78 78 78 79 78 78 78 79 79 77 77 76 75 73 72 72 73 72 71 71 72 73 73 73 73 74 75 75 75 75 75 74
79 81 81 80 80 80 79 79 79 79 80 81 82 83 83 84 84 84 83 84 85 87 87 86 84 83 82 82 80 78 78 78 78 78 78 78 76 76 76 75 74 74 74 73 72 72 73 73 72 71 72 73 74 74 74 74 74 75 75 75 75 74 74
80 81 80 80 79 79 79 79 79 79 80 81 82 82 82 83 83 83 83 85 84 86 86 85 83 82 82 80 79 78 79 78 78 78 77 76 74 75 74 73 74 74 73 71 69 71 72 72 73 72 72 73 73 74 74 74 74 75 75 74 74 74 74
81 81 81 80 80 80 79 80 79 79 80 80 81 81 82 82 82 83 83 83 85 84 85 84 82 81 81 79 79 79 79 78 78 77 76 74 73 72 71 71 72 71 71 69 68 69 69 72 73 75 74 73 72 73 73 73 74 71 67 69 75 76 76
81 81 82 81 80 80 80 80 80 79 79 79 80 81 81 81 82 82 85 84 84 83 85 84 82 81 80 79 79 79 78 78 77 76 75 75 74 72 71 70 69 69 69 68 68 69 70 71 72 73 73 73 72 72 72 74 74 68 65 65 67 74 77
80 80 81 81 80 79 78 79 79 79 79 80 80 81 81 81 82 82 82 83 83 85 85 83 82 81 79 80 79 78 78 78 77 76 75 75 74 73 70 69 69 69 69 67 67 68 69 69 70 71 72 73 73 73 73 74 69 65 64 64 64 67 76
81 81 81 79 79 78 79 81 80 79 81 81 81 81 82 82 82 81 81 81 82 83 83 81 81 80 79 79 78 78 78 78 77 75 75 74 74 73 71 69 69 69 67 66 68 69 69 70 71 71 72 73 73 74 75 77 69 64 63 63 63 64 69
82 82 82 82 81 81 80 81 81 81 81 80 81 83 82 82 82 82 83 82 82 81 81 80 80 80 79 78 78 78 77 77 77 75 75 74 73 71 71 69 68 67 66 66 67 69 70 71 71 72 72 72 73 74 77 77 70 64 62 62 62 63 66
79 80 80 80 80 81 79 80 80 80 79 81 82 82 82 82 83 83 82 82 81 81 80 80 80 79 79 78 77 77 77 77 76 75 74 74 72 70 71 69 67 67 68 69 69 71 71 72 72 73 74 75 76 76 76 78 67 63 62 60 60 60 65
81 83 81 81 79 78 78 80 80 81 80 82 83 83 84 83 84 84 81 81 81 80 79 79 79 78 78 77 76 76 76 76 76 75 74 73 71 69 68 68 67 67 68 71 73 74 75 74 75 74 75 75 77 77 76 80 66 63 61 59 59 60 72
86 84 82 80 83 81 80 82 82 83 81 81 82 82 83 84 83 82 80 79 80 79 78 78 78 78 77 76 76 76 76 76 76 74 73 73 71 70 68 67 67 69 71 71 73 74 74 75 75 75 76 76 76 75 76 78 69 60 59 58 58 63 74
83 83 83 83 81 81 80 81 81 81 82 81 80 80 80 80 81 80 78 78 78 78 77 77 77 77 76 76 76 76 76 76 75 73 73 72 72 71 69 69 71 72 73 72 73 74 75 76 75 76 77 77 77 78 77 79 69 58 57 57 56 65 74
83 82 81 81 81 80 79 78 78 79 78 78 76 75 77 78 79 79 77 77 77 77 77 76 77 77 76 76 76 76 76 76 75 74 73 72 72 71 70 70 71 73 74 74 75 75 75 76 76 77 77 79 79 72 76 79 70 55 57 56 56 64 73
76 77 77 77 78 77 75 76 76 76 76 75 73 74 76 77 78 77 76 76 77 77 77 76 77 77 77 77 76 76 76 75 74 73 73 73 71 70 71 72 73 74 74 75 76 76 76 76 76 76 77 79 78 78 78 76 76 66 55 55 54 59 70
77 78 78 78 76 76 76 76 76 75 74 73 73 75 76 77 77 75 74 75 75 75 76 77 76 76 76 76 76 76 75 75 74 73 74 73 70 69 71 73 74 74 74 75 76 75 74 74 75 75 75 76 77 76 77 77 73 64 54 53 54 56 62
77 77 78 76 74 75 75 75 72 72 72 72 74 75 76 76 74 73 74 74 74 75 76 76 76 76 76 76 76 75 75 74 74 74 74 72 69 68 69 73 75 75 74 74 74 73 73 73 73 73 74 74 74 74 73 68 66 67 55 53 52 53 56
75 75 75 74 74 75 76 73 72 72 72 75 75 75 76 76 73 73 73 74 74 75 75 75 75 75 76 75 75 74 75 75 74 74 72 70 68 69 69 72 73 73 73 72 72 72 72 72 72 72 71 72 72 70 68 67 66 60 59 52 50 50 53
75 75 75 76 75 75 75 71 71 70 71 73 73 74 75 75 73 73 74 73 74 75 75 75 75 76 75 74 74 73 74 74 74 73 72 70 69 70 71 71 72 72 72 72 72 72 72 71 72 72 72 72 69 66 66 66 65 59 57 56 50 49 49
73 74 74 74 74 74 76 74 71 71 71 71 72 73 74 76 75 73 73 73 74 74 74 74 74 75 74 74 74 73 74 73 73 73 73 72 72 71 71 72 72 70 71 72 72 72 72 71 72 70 70 70 69 66 66 67 67 65 58 54 50 48 46
74 75 75 74 73 73 74 74 74 72 70 70 72 73 73 75 76 75 73 73 74 74 74 74 73 74 74 74 74 73 73 72 72 72 73 73 73 73 73 72 72 71 71 72 73 72 72 71 71 71 70 67 66 65 67 67 65 65 62 58 55 54 50
73 73 74 73 72 73 74 74 74 73 73 71 72 74 76 75 76 76 74 73 75 75 74 73 72 71 72 72 72 73 73 72 71 71 72 73 74 74 73 72 72 72 71 72 72 71 71 72 69 67 66 67 67 68 68 66 64 66 68 67 66 66 61
73 73 72 72 72 73 74 74 74 73 73 72 72 74 75 75 75 75 75 76 77 76 73 72 72 72 72 73 72 72 72 72 71 71 73 73 73 73 73 72 73 72 72 72 70 70 70 70 69 69 70 71 72 71 69 66 65 67 69 68 68 68 67
71 71 72 72 71 72 73 72 72 71 72 72 72 73 73 74 76 78 75 75 76 74 73 72 71 73 73 73 73 72 72 73 72 72 72 72 69 64 60 63 67 69 71 69 73 73 74 72 69 71 73 75 73 72 70 70 68 70 62 68 60 66 70
71 72 72 72 72 72 71 71 72 71 71 71 72 73 73 74 74 75 78 76 75 74 73 71 71 72 71 72 72 74 74 73 74 73 71 71 67 64 57 48 43 48 61 67 56 50 46 50 69 72 77 76 75 73 73 75 74 53 47 44 44 44 46
70 71 71 72 72 71 71 71 71 71 70 71 72 72 73 73 74 73 75 74 74 74 73 72 71 72 74 73 75 75 75 74 74 70 69 69 68 68 65 63 55 42 40 43 46 44 42 43 42 45 53 69 74 62 46 48 45 43 43 40 40 40 41
72 71 72 73 73 71 71 70 70 70 70 71 71 72 72 73 73 72 73 72 73 74 73 73 72 73 74 75 75 72 73 75 73 71 70 69 68 67 66 66 64 58 44 40 42 43 40 40 42 45 49 54 59 61 61 47 43 41 41 41 39 40 39
MSLP
1006.24 1006.60 1006.84 1006.88 1007.12 1007.16 1007.36 1007.68 1007.92 1008.28 1008.60 1009.00 1009.32 1009.56 1009.92 1010.24 1010.48 1010.68 1011.04 1011.24 1011.52 1011.84 1011.88 1012.12 1012.40 1012.60 1012.80 1012.92 1013.00 1013.12 1013.24 1013.52 1013.80 1014.20 1014.52 1014.64 1014.64 1014.96 1015.44 1015.64 1015.92 1016.16 1016.24 1016.48 1016.52 1016.64 1016.72 1016.84 1017.12 1017.32 1017.44 1017.64 1017.88 1018.04 1018.16 1018.28 1018.44 1018.48 1018.60 1018.72 1018.84 1019.00 1019.08
1005.84 1005.84 1005.96 1006.12 1006.44 1006.64 1006.72 1006.88 1007.32 1007.72 1008.08 1008.44 1008.84 1009.20 1009.40 1009.72 1009.96 1010.24 1010.36 1010.56 1010.84 1011.16 1011.40 1011.72 1012.04 1012.16 1012.24 1012.44 1012.52 1012.68 1012.96 1013.16 1013.48 1013.72 1013.92 1014.16 1014.36 1014.68 1015.00 1015.44 1015.68 1015.92 1016.00 1016.04 1016.16 1016.36 1016.56 1016.80 1017.00 1017.24 1017.44 1017.60 1017.80 1017.88 1018.08 1018.20 1018.32 1018.44 1018.56 1018.68 1018.88 1019.00 1019.00
1005.16 1005.24 1005.40 1005.60 1005.84 1006.04 1006.28 1006.48 1006.76 1007.00 1007.44 1007.84 1008.24 1008.68 1008.92 1009.00 1009.04 1009.28 1009.68 1010.12 1010.52 1010.76 1010.92 1011.20 1011.40 1011.64 1011.84 1012.00 1012.20 1012.28 1012.44 1012.84 1013.20 1013.48 1013.72 1014.00 1014.40 1014.68 1014.96 1015.20 1015.40 1015.60 1015.68 1015.76 1015.96 1016.24 1016.36 1016.64 1016.80 1017.00 1017.24 1017.48 1017.60 1017.80 1017.92 1018.08 1018.16 1018.28 1018.44 1018.56 1018.76 1018.84 1018.92
1004.56 1004.60 1004.56 1004.60 1004.88 1005.08 1005.36 1005.64 1006.00 1006.28 1006.60 1006.96 1007.36 1007.68 1008.08 1008.32 1008.32 1008.68 1009.08 1009.44 1010.08 1010.52 1010.84 1010.80 1011.04 1011.28 1011.40 1011.60 1011.76 1011.92 1012.28 1012.60 1012.80 1013.08 1013.36 1013.72 1014.16 1014.44 1014.80 1015.04 1015.20 1015.28 1015.56 1015.68 1015.68 1015.88 1016.16 1016.36 1016.68 1016.88 1017.08 1017.28 1017.48 1017.60 1017.80 1017.92 1017.96 1018.08 1018.24 1018.44 1018.60 1018.68 1018.76
1003.88 1003.88 1004.24 1004.64 1004.84 1005.16 1005.44 1005.68 1005.84 1006.04 1006.20 1006.36 1006.68 1006.96 1007.20 1007.52 1008.04 1008.48 1008.84 1009.04 1009.36 1009.84 1009.88 1010.20 1010.52 1010.80 1010.92 1011.00 1011.16 1011.44 1011.88 1012.24 1012.52 1012.76 1013.04 1013.36 1013.68 1014.04 1014.48 1014.80 1015.00 1015.12 1015.20 1015.40 1015.60 1015.88 1016.12 1016.28 1016.48 1016.76 1017.00 1017.16 1017.36 1017.52 1017.72 1017.80 1017.88 1017.96 1018.12 1018.32 1018.56 1018.64 1018.72
1003.64 1003.92 1003.84 1003.92 1004.20 1004.44 1004.68 1004.84 1005.00 1005.32 1005.76 1006.16 1006.40 1006.72 1006.92 1007.28 1007.64 1008.04 1008.24 1008.68 1009.00 1009.24 1009.60 1009.92 1010.20 1010.24 1010.44 1010.40 1010.68 1011.12 1011.52 1011.88 1012.12 1012.40 1012.76 1013.08 1013.48 1013.84 1014.12 1014.28 1014.48 1014.72 1015.00 1015.24 1015.44 1015.76 1015.92 1016.16 1016.40 1016.68 1016.96 1017.04 1017.24 1017.40 1017.52 1017.68 1017.72 1017.80 1018.00 1018.20 1018.40 1018.48 1018.60
1002.92 1003.12 1003.40 1003.48 1003.64 1003.88 1004.08 1004.28 1004.52 1004.88 1005.20 1005.44 1005.64 1005.96 1006.40 1006.88 1007.28 1007.40 1007.72 1008.24 1008.48 1009.04 1009.28 1009.56 1009.56 1009.72 1009.76 1009.92 1010.40 1010.88 1011.36 1011.64 1011.88 1012.20 1012.40 1012.80 1013.04 1013.44 1013.64 1013.84 1014.04 1014.24 1014.44 1014.84 1015.20 1015.36 1015.72 1016.00 1016.32 1016.68 1016.92 1017.00 1017.20 1017.36 1017.48 1017.60 1017.68 1017.68 1017.88 1018.08 1018.28 1018.32 1018.40
1002.20 1002.76 1002.76 1002.80 1002.88 1003.04 1003.40 1003.84 1004.20 1004.52 1004.84 1005.16 1005.64 1005.96 1006.32 1006.44 1006.80 1007.24 1007.56 1007.64 1007.92 1008.28 1008.72 1008.92 1009.20 1009.20 1009.16 1009.56 1010.08 1010.56 1010.88 1011.16 1011.48 1011.84 1012.16 1012.52 1012.80 1013.08 1013.28 1013.60 1013.96 1014.12 1014.40 1014.80 1015.08 1015.28 1015.56 1015.76 1016.00 1016.40 1016.64 1016.88 1017.12 1017.28 1017.32 1017.40 1017.48 1017.48 1017.64 1017.92 1018.08 1018.16 1018.16
1001.88 1002.12 1002.32 1002.40 1002.52 1002.60 1002.88 1003.32 1003.72 1004.12 1004.52 1004.88 1005.12 1005.40 1005.68 1006.04 1006.40 1006.72 1006.92 1007.16 1007.44 1007.84 1008.04 1008.00 1008.12 1008.24 1008.76 1009.44 1009.92 1010.24 1010.44 1010.84 1011.32 1011.60 1012.00 1012.28 1012.52 1012.80 1013.08 1013.32 1013.64 1013.92 1014.40 1014.72 1015.00 1015.20 1015.44 1015.64 1015.60 1016.00 1016.28 1016.60 1016.96 1017.24 1017.32 1017.32 1017.32 1017.32 1017.48 1017.68 1017.88 1017.96 1017.96
1002.00 1002.24 1002.12 1002.04 1002.08 1002.40 1002.80 1003.20 1003.68 1004.20 1004.76 1005.04 1005.24 1005.48 1005.68 1005.88 1006.12 1006.36 1006.64 1006.88 1007.12 1007.52 1007.52 1007.64 1007.64 1007.92 1008.52 1009.12 1009.56 1009.80 1010.24 1010.68 1010.92 1011.32 1011.60 1011.96 1012.12 1012.40 1012.64 1012.96 1013.44 1013.96 1014.44 1014.76 1015.04 1015.44 1015.52 1015.40 1015.48 1015.88 1016.24 1016.40 1016.68 1017.12 1017.24 1017.24 1017.28 1017.32 1017.36 1017.48 1017.60 1017.68 1017.68
1001.80 1002.08 1002.28 1002.36 1002.44 1002.56 1002.80 1003.20 1003.68 1003.96 1004.20 1004.52 1004.76 1005.00 1005.32 1005.64 1005.84 1006.04 1006.28 1006.40 1006.68 1006.80 1006.88 1007.12 1007.28 1007.72 1008.20 1008.68 1009.20 1009.56 1009.96 1010.32 1010.60 1010.92 1011.16 1011.40 1011.64 1011.96 1012.28 1012.60 1013.00 1013.48 1013.96 1014.44 1014.68 1014.88 1014.76 1014.84 1015.08 1015.80 1016.04 1016.00 1016.12 1016.56 1016.88 1016.96 1017.04 1017.16 1017.12 1017.12 1017.12 1017.20 1017.28
1001.84 1002.00 1002.12 1002.20 1002.40 1002.60 1002.84 1003.00 1003.32 1003.80 1004.04 1004.24 1004.44 1004.72 1005.00 1005.24 1005.48 1005.76 1006.00 1006.16 1006.16 1006.48 1006.68 1006.88 1007.04 1007.36 1007.88 1008.28 1008.88 1009.28 1009.60 1009.84 1010.16 1010.40 1010.56 1010.84 1011.20 1011.48 1011.68 1012.04 1012.52 1013.00 1013.44 1013.68 1014.08 1014.40 1014.20 1014.28 1014.36 1015.00 1015.68 1015.68 1015.60 1015.88 1016.28 1016.44 1016.64 1016.72 1016.72 1016.68 1016.72 1016.88 1017.04
1001.60 1001.72 1001.88 1002.04 1002.20 1002.36 1002.72 1003.16 1003.36 1003.48 1003.72 1003.88 1004.04 1004.32 1004.52 1004.88 1005.24 1005.48 1005.76 1005.96 1005.96 1006.08 1006.44 1006.72 1006.96 1007.24 1007.68 1008.04 1008.44 1008.88 1009.12 1009.32 1009.52 1009.64 1009.92 1010.32 1010.92 1011.32 1011.68 1011.96 1012.32 1012.72 1013.12 1013.44 1013.80 1014.08 1014.12 1014.16 1014.28 1014.56 1014.96 1015.32 1015.64 1015.64 1015.76 1016.00 1016.16 1016.24 1016.28 1016.36 1016.48 1016.64 1016.84
1001.76 1001.80 1001.84 1001.92 1002.24 1002.44 1002.56 1002.76 1003.12 1003.40 1003.56 1003.80 1004.00 1004.12 1004.44 1004.68 1004.92 1005.28 1005.52 1005.76 1005.80 1005.96 1006.24 1006.36 1006.60 1007.00 1007.40 1007.76 1008.12 1008.40 1008.60 1008.72 1008.92 1009.36 1009.72 1010.28 1010.96 1011.32 1011.40 1011.64 1012.00 1012.40 1012.80 1013.32 1013.80 1013.92 1014.00 1014.32 1014.32 1014.32 1014.52 1014.84 1015.16 1015.32 1015.40 1015.60 1015.76 1015.84 1015.92 1016.04 1016.20 1016.40 1016.52
1001.60 1001.56 1001.72 1001.88 1001.84 1001.92 1002.28 1002.60 1002.76 1003.04 1003.32 1003.52 1003.76 1004.12 1004.36 1004.60 1004.84 1005.00 1005.20 1005.32 1005.52 1005.68 1005.84 1005.84 1006.28 1006.72 1007.08 1007.44 1007.80 1007.92 1008.08 1008.52 1008.92 1009.32 1009.84 1010.28 1010.44 1010.48 1011.08 1011.76 1012.00 1012.16 1012.68 1013.44 1013.88 1013.80 1013.92 1014.12 1014.32 1014.44 1014.56 1014.76 1015.04 1015.28 1015.32 1015.40 1015.44 1015.44 1015.56 1015.84 1016.00 1016.04 1016.16
1001.12 1001.04 1001.16 1001.28 1001.32 1001.48 1001.72 1001.96 1002.40 1002.72 1003.00 1003.36 1003.60 1003.84 1004.08 1004.32 1004.52 1004.68 1004.96 1005.20 1005.28 1005.52 1005.44 1005.60 1006.04 1006.44 1006.80 1007.16 1007.28 1007.48 1007.84 1008.24 1008.68 1009.24 1009.68 1010.16 1010.28 1010.44 1010.76 1011.68 1012.20 1012.28 1012.48 1012.68 1012.96 1013.40 1013.80 1013.96 1014.08 1014.28 1014.60 1014.88 1014.92 1015.00 1015.12 1015.08 1015.00 1015.08 1015.28 1015.44 1015.52 1015.56 1015.64
1000.48 1000.48 1000.48 1000.76 1001.04 1001.28 1001.44 1001.76 1002.08 1002.48 1002.80 1003.04 1003.24 1003.40 1003.60 1003.84 1004.12 1004.40 1004.60 1004.80 1004.96 1005.12 1005.12 1005.36 1005.92 1006.24 1006.56 1006.84 1006.96 1007.28 1007.60 1008.00 1008.44 1008.88 1009.44 1009.72 1010.20 1010.68 1010.96 1010.84 1011.52 1012.28 1012.44 1012.56 1012.80 1013.16 1013.56 1013.80 1014.04 1014.20 1014.40 1014.52 1014.52 1014.56 1014.64 1014.64 1014.60 1014.76 1015.00 1015.12 1015.24 1015.28 1015.28
1000.12 1000.16 1000.24 1000.52 1000.80 1001.12 1001.56 1001.72 1002.00 1002.24 1002.44 1002.56 1002.72 1002.96 1003.32 1003.68 1003.92 1004.24 1004.44 1004.48 1004.68 1004.64 1004.72 1005.12 1005.48 1005.88 1006.24 1006.44 1006.76 1007.04 1007.36 1007.68 1008.12 1008.68 1009.12 1009.52 1009.88 1010.28 1010.68 1011.12 1011.44 1011.56 1011.52 1012.24 1012.68 1013.00 1013.28 1013.68 1013.80 1013.80 1013.96 1014.08 1014.08 1014.08 1014.12 1014.20 1014.20 1014.48 1014.72 1014.88 1014.96 1015.08 1014.96
999.36 999.60 999.88 1000.20 1000.52 1000.80 1000.92 1001.00 1001.20 1001.48 1001.68 1001.96 1002.24 1002.56 1002.68 1003.00 1003.64 1004.00 1003.96 1004.08 1004.04 1004.20 1004.60 1004.92 1005.20 1005.60 1006.00 1006.24 1006.52 1006.84 1007.08 1007.48 1007.96 1008.48 1008.92 1009.28 1009.68 1010.12 1010.88 1011.28 1011.84 1012.20 1011.80 1012.08 1012.32 1012.76 1013.12 1013.36 1013.52 1013.64 1013.72 1013.80 1013.76 1013.76 1013.76 1013.76 1013.72 1014.08 1014.40 1014.56 1014.60 1014.72 1014.92
998.88 999.08 999.40 999.64 999.80 1000.00 1000.20 1000.36 1000.68 1001.00 1001.24 1001.48 1001.68 1001.96 1002.28 1002.48 1002.80 1002.96 1003.12 1003.48 1003.80 1004.20 1004.48 1004.84 1005.08 1005.36 1005.72 1006.04 1006.36 1006.72 1007.08 1007.48 1007.92 1008.40 1008.72 1009.12 1009.68 1010.20 1010.76 1011.40 1011.76 1012.24 1012.16 1012.28 1012.56 1012.88 1013.08 1013.12 1013.20 1013.28 1013.48 1013.48 1013.52 1013.52 1013.44 1013.40 1013.36 1013.68 1013.96 1014.12 1014.24 1014.60 1014.96
999.64 999.60 999.48 999.60 999.88 999.92 1000.28 1000.48 1000.80 1001.08 1001.44 1001.60 1001.60 1001.76 1002.08 1002.44 1002.48 1002.76 1003.16 1003.40 1003.88 1004.08 1004.48 1004.68 1004.92 1005.28 1005.56 1006.00 1006.36 1006.72 1007.12 1007.48 1007.84 1008.28 1008.60 1009.04 1009.56 1010.12 1010.44 1010.92 1011.32 1011.60 1011.92 1012.28 1012.40 1012.52 1012.72 1012.76 1012.88 1012.96 1013.04 1013.04 1013.00 1013.04 1013.08 1012.96 1013.04 1013.32 1013.60 1013.88 1014.20 1014.48 1014.64
998.88 999.08 999.44 999.20 999.44 999.76 1000.04 1000.28 1000.48 1000.68 1000.96 1000.88 1001.28 1001.56 1001.72 1002.08 1002.16 1002.64 1003.16 1003.28 1003.76 1004.12 1004.36 1004.64 1004.96 1005.28 1005.60 1006.04 1006.40 1006.72 1006.96 1007.32 1007.68 1008.12 1008.44 1008.88 1009.40 1009.96 1010.44 1010.76 1010.92 1011.28 1011.52 1011.76 1011.96 1012.00 1012.12 1012.28 1012.36 1012.60 1012.76 1012.64 1012.52 1012.60 1012.72 1012.52 1012.72 1013.04 1013.40 1013.80 1014.00 1014.16 1014.16
997.76 998.32 998.80 999.24 999.08 999.36 999.44 999.48 999.84 1000.08 1000.44 1000.92 1001.20 1001.52 1001.72 1001.76 1002.08 1002.56 1003.12 1003.60 1003.76 1004.08 1004.40 1004.64 1005.04 1005.32 1005.64 1006.00 1006.24 1006.48 1006.76 1007.08 1007.52 1007.96 1008.28 1008.68 1009.20 1009.68 1010.12 1010.36 1010.64 1010.76 1011.00 1011.48 1011.60 1011.76 1011.88 1011.92 1011.96 1012.08 1012.20 1012.20 1012.24 1012.44 1012.48 1012.44 1012.48 1012.80 1013.16 1013.48 1013.64 1013.80 1013.72
997.76 998.00 998.32 998.84 999.04 999.24 999.52 999.68 999.92 1000.28 1000.68 1001.24 1001.56 1001.68 1001.72 1001.88 1002.20 1002.68 1003.32 1003.68 1003.88 1004.16 1004.48 1004.72 1005.00 1005.16 1005.48 1005.80 1006.00 1006.24 1006.52 1006.88 1007.28 1007.76 1008.16 1008.48 1008.80 1009.24 1009.72 1010.12 1010.32 1010.48 1010.68 1011.08 1011.32 1011.44 1011.40 1011.40 1011.56 1011.56 1011.60 1011.76 1011.92 1012.00 1012.24 1012.16 1012.16 1012.56 1012.92 1013.16 1013.40 1013.40 1013.36
998.00 998.28 998.64 998.92 999.24 999.68 999.92 1000.24 1000.36 1000.64 1001.04 1001.52 1002.16 1002.24 1002.04 1002.16 1002.48 1003.00 1003.56 1003.84 1004.08 1004.24 1004.56 1004.84 1004.96 1005.16 1005.44 1005.68 1005.84 1006.12 1006.36 1006.72 1007.12 1007.52 1007.88 1008.16 1008.48 1008.84 1009.40 1009.76 1009.92 1010.08 1010.24 1010.60 1010.88 1010.96 1010.96 1011.04 1011.20 1011.28 1011.32 1011.36 1011.52 1011.72 1011.96 1011.84 1012.04 1012.48 1012.72 1012.92 1013.16 1013.24 1013.12
998.88 999.08 999.28 999.28 999.56 999.84 1000.20 1000.36 1000.72 1001.24 1001.72 1002.12 1002.40 1002.12 1002.20 1002.40 1002.72 1003.24 1003.68 1004.00 1004.12 1004.44 1004.68 1004.84 1004.88 1004.96 1005.12 1005.44 1005.76 1006.04 1006.32 1006.56 1006.96 1007.32 1007.64 1008.04 1008.40 1008.80 1009.16 1009.40 1009.68 1009.88 1010.12 1010.32 1010.44 1010.64 1010.68 1010.76 1010.88 1011.12 1011.16 1011.12 1011.36 1011.48 1011.64 1011.92 1012.08 1012.40 1012.56 1012.72 1012.96 1013.00 1012.92
998.96 998.88 999.12 999.36 999.84 999.84 1000.32 1000.76 1001.04 1001.56 1001.88 1002.12 1002.16 1002.24 1002.32 1002.48 1002.88 1003.48 1003.80 1004.04 1004.36 1004.68 1004.68 1004.64 1004.76 1004.92 1005.16 1005.40 1005.72 1006.04 1006.32 1006.48 1006.80 1007.20 1007.56 1007.88 1008.32 1008.76 1009.04 1009.16 1009.40 1009.60 1009.88 1010.12 1010.20 1010.32 1010.48 1010.64 1010.76 1010.92 1011.00 1011.04 1011.08 1011.28 1011.44 1011.68 1012.08 1012.28 1012.36 1012.68 1012.92 1013.12 1013.40
999.08 999.20 999.24 999.44 999.84 1000.08 1000.60 1001.08 1001.56 1001.80 1002.12 1002.24 1002.32 1002.44 1002.52 1002.60 1003.08 1003.52 1003.88 1004.20 1004.56 1004.60 1004.52 1004.64 1004.76 1004.88 1005.12 1005.44 1005.76 1006.04 1006.28 1006.52 1006.76 1007.12 1007.56 1007.92 1008.36 1008.88 1009.08 1009.12 1009.20 1009.44 1009.72 1009.88 1010.08 1010.32 1010.52 1010.64 1010.84 1010.96 1010.92 1010.92 1011.04 1011.24 1011.60 1011.84 1011.68 1011.64 1012.24 1012.68 1012.96 1013.28 1013.40
999.48 999.68 999.96 1000.16 1000.40 1000.36 1000.40 1001.20 1001.68 1002.04 1002.20 1002.28 1002.48 1002.68 1002.72 1002.84 1003.32 1003.64 1003.92 1004.32 1004.56 1004.48 1004.56 1004.64 1004.76 1004.92 1005.12 1005.40 1005.72 1006.04 1006.20 1006.40 1006.76 1007.12 1007.44 1007.76 1008.16 1008.52 1008.92 1009.00 1009.12 1009.32 1009.56 1009.88 1010.16 1010.40 1010.56 1010.68 1010.80 1010.88 1011.00 1011.08 1011.24 1011.60 1011.96 1011.76 1011.64 1012.00 1012.48 1012.84 1013.12 1013.32 1013.40
999.84 999.96 1000.04 1000.04 1000.16 1000.36 1000.20 1001.00 1001.64 1002.08 1002.32 1002.36 1002.56 1002.76 1002.96 1003.16 1003.60 1003.84 1004.08 1004.40 1004.32 1004.36 1004.48 1004.68 1004.80 1004.92 1005.16 1005.48 1005.72 1006.04 1006.20 1006.40 1006.68 1006.96 1007.20 1007.56 1008.00 1008.36 1008.72 1009.00 1009.20 1009.36 1009.48 1009.68 1009.96 1010.24 1010.44 1010.56 1010.72 1010.84 1010.84 1010.92 1011.32 1011.92 1012.04 1012.08 1012.24 1012.60 1012.60 1012.76 1013.20 1013.36 1013.36
1000.28 1000.44 1000.48 1000.52 1000.60 1000.60 1000.72 1001.40 1002.04 1002.24 1002.52 1002.64 1002.68 1002.76 1002.92 1003.16 1003.52 1003.92 1004.12 1004.16 1004.12 1004.28 1004.52 1004.72 1004.92 1005.08 1005.32 1005.52 1005.68 1005.96 1006.12 1006.36 1006.64 1006.88 1007.08 1007.32 1007.72 1008.20 1008.48 1008.80 1009.04 1009.40 1009.44 1009.52 1009.72 1009.88 1010.16 1010.36 1010.48 1010.64 1010.60 1010.72 1011.04 1011.60 1011.84 1011.88 1011.96 1012.32 1012.84 1013.28 1013.44 1013.40 1013.40
1000.40 1000.60 1000.80 1000.88 1000.96 1001.08 1001.28 1001.64 1001.96 1002.28 1002.80 1002.96 1002.92 1003.04 1003.16 1003.20 1003.24 1003.72 1003.84 1003.92 1004.04 1004.20 1004.44 1004.72 1005.00 1005.16 1005.24 1005.40 1005.64 1005.84 1006.08 1006.48 1006.64 1006.80 1006.92 1007.16 1007.40 1007.72 1008.08 1008.52 1008.80 1009.04 1009.28 1009.40 1009.52 1009.68 1009.96 1010.16 1010.24 1010.32 1010.48 1010.72 1010.92 1011.36 1011.52 1011.72 1011.92 1012.20 1012.72 1013.28 1013.48 1013.44 1013.52
1001.20 1001.24 1001.12 1001.20 1001.32 1001.32 1001.52 1001.68 1002.04 1002.48 1002.76 1003.20 1003.16 1003.16 1003.20 1003.32 1003.28 1003.36 1003.64 1003.96 1004.04 1004.20 1004.44 1004.68 1004.96 1005.20 1005.32 1005.44 1005.64 1005.84 1006.08 1006.44 1006.68 1006.88 1006.96 1007.12 1007.32 1007.56 1007.88 1008.24 1008.56 1008.80 1009.08 1009.20 1009.40 1009.68 1009.88 1009.92 1010.20 1010.48 1010.64 1010.68 1010.76 1010.92 1011.16 1011.60 1011.88 1012.00 1012.12 1012.40 1012.60 1012.72 1013.12
1001.36 1001.52 1001.72 1001.76 1001.72 1001.52 1001.52 1001.68 1001.96 1002.40 1002.68 1003.08 1003.20 1003.16 1003.20 1003.28 1003.44 1003.48 1003.64 1003.76 1003.88 1004.12 1004.48 1004.80 1005.00 1005.16 1005.28 1005.40 1005.60 1005.84 1006.04 1006.28 1006.56 1006.76 1006.84 1007.00 1007.20 1007.48 1007.76 1008.08 1008.28 1008.64 1008.88 1009.04 1009.32 1009.56 1009.80 1009.84 1009.96 1010.08 1010.08 1010.12 1010.08 1010.36 1010.88 1011.36 1011.72 1011.72 1011.68 1011.92 1012.04 1012.20 1012.40
1001.56 1001.68 1001.84 1002.12 1002.28 1002.08 1002.08 1002.20 1002.48 1002.84 1003.04 1003.24 1003.24 1003.28 1003.36 1003.44 1003.36 1003.40 1003.68 1003.76 1003.84 1004.20 1004.56 1004.88 1004.96 1004.96 1005.12 1005.28 1005.48 1005.84 1006.04 1006.16 1006.40 1006.64 1006.76 1007.04 1007.60 1008.16 1008.72 1008.84 1008.68 1008.72 1008.68 1008.84 1008.80 1008.96 1009.12 1009.48 1009.68 1009.60 1009.44 1009.40 1009.68 1010.04 1010.44 1010.68 1010.96 1011.04 1011.16 1011.40 1011.68 1011.80 1012.00
1001.96 1001.92 1002.04 1002.12 1002.20 1002.36 1002.52 1002.60 1002.76 1003.08 1003.28 1003.40 1003.40 1003.40 1003.48 1003.52 1003.52 1003.52 1003.44 1003.64 1003.92 1004.24 1004.56 1004.76 1004.88 1005.04 1005.24 1005.36 1005.64 1005.76 1006.00 1006.12 1006.28 1006.44 1006.84 1007.32 1007.92 1008.48 1009.52 1010.48 1010.48 1010.28 1009.60 1009.32 1009.80 1009.84 1009.80 1009.68 1009.36 1009.20 1008.96 1009.16 1009.36 1009.60 1009.88 1010.04 1010.20 1010.88 1011.52 1011.88 1012.12 1012.32 1012.36
1002.44 1002.44 1002.48 1002.48 1002.64 1002.84 1002.88 1003.00 1003.08 1003.24 1003.52 1003.48 1003.44 1003.44 1003.44 1003.52 1003.52 1003.68 1003.68 1003.92 1004.08 1004.24 1004.40 1004.56 1004.88 1005.04 1005.12 1005.36 1005.48 1005.52 1005.76 1006.04 1006.20 1006.80 1007.12 1007.40 1007.88 1008.16 1008.60 1009.16 1010.16 1010.68 1010.84 1010.84 1010.76 1010.40 1010.16 1009.96 1009.84 1009.72 1009.56 1009.44 1009.56 1010.32 1010.84 1010.84 1011.08 1011.44 1011.84 1012.08 1012.28 1012.48 1012.68
1002.28 1002.32 1002.40 1002.52 1002.68 1002.92 1003.04 1003.20 1003.36 1003.48 1003.60 1003.52 1003.52 1003.48 1003.44 1003.52 1003.56 1003.80 1003.92 1004.12 1004.24 1004.24 1004.36 1004.48 1004.72 1004.96 1005.00 1005.12 1005.28 1005.68 1005.80 1005.84 1006.24 1006.64 1007.04 1007.44 1007.76 1008.04 1008.32 1008.56 1008.96 1009.96 1010.92 1011.04 1010.80 1010.60 1010.40 1010.12 1009.96 1009.96 1009.92 1009.84 1009.80 1010.04 1010.88 1011.52 1011.64 1011.80 1011.92 1012.12 1012.36 1012.56 1012.84
Wind_Speed
16 16 15 14 15 17 17 16 17 16 15 15 15 17 16 14 14 13 13 15 16 15 14 14 14 14 15 13 14 12 12 11 9 9 9 9 9 8 8 7 8 7 7 8 8 8 7 7 7 7 6 6 7 7 6 6 5 5 5 5 5 4 5
17 18 18 17 18 18 18 17 16 15 14 15 15 16 15 16 14 14 15 15 16 17 15 14 14 14 14 14 12 14 13 12 11 9 9 8 7 7 8 8 8 8 7 7 7 6 6 7 7 7 6 6 7 7 6 6 6 6 6 5 5 5 5
17 17 17 16 17 17 17 16 16 16 16 15 16 15 16 17 17 18 16 15 16 15 14 15 16 15 13 13 13 14 14 12 11 12 11 9 9 9 7 7 8 8 8 7 6 6 7 7 6 6 6 6 7 6 6 6 6 6 6 6 6 6 6
15 17 19 19 18 16 17 19 19 18 17 19 19 19 18 18 17 15 15 16 16 15 15 15 14 14 14 14 14 13 13 13 12 12 11 9 10 9 8 8 7 7 7 8 8 7 7 7 7 6 7 7 7 7 6 7 7 6 6 6 5 6 6
15 16 15 15 17 14 15 15 16 17 18 19 18 18 17 17 15 13 14 15 16 17 18 16 13 13 12 13 11 10 12 14 12 11 10 9 9 9 9 10 9 9 8 8 7 7 7 7 7 7 7 6 7 6 7 7 7 6 6 6 5 5 6
14 15 15 16 16 16 17 18 20 20 19 19 19 18 17 17 16 19 18 16 16 15 13 13 14 14 15 15 12 10 10 11 12 12 11 10 11 10 11 11 11 11 10 9 7 7 8 7 7 7 7 7 7 7 7 7 7 6 6 5 5 6 6
13 14 14 14 15 16 18 18 19 19 18 18 17 15 15 16 18 18 17 17 17 17 17 16 16 15 14 12 12 12 13 13 12 13 11 11 12 11 11 10 10 10 9 8 8 8 8 7 6 6 5 6 6 7 6 6 6 5 4 5 6 6 7
12 13 14 16 16 17 17 17 17 17 16 15 14 16 17 16 16 17 17 17 18 17 16 17 16 15 15 12 10 13 13 14 12 12 11 12 12 12 11 9 9 9 8 9 8 8 8 8 6 7 7 6 6 6 6 6 6 6 5 6 6 8 6
11 12 14 16 16 16 15 15 16 17 18 18 19 18 19 17 16 17 18 17 16 17 18 18 17 15 12 10 10 13 12 11 12 12 12 13 11 12 11 10 9 9 9 8 7 6 7 8 8 7 6 5 4 4 5 6 6 6 5 6 7 8 7
11 12 13 13 13 11 11 13 13 12 14 14 14 14 16 15 14 15 15 16 15 17 18 17 15 14 12 11 12 14 12 12 12 14 15 14 11 13 12 10 9 8 8 7 6 8 6 6 7 6 6 6 5 6 6 6 6 5 6 7 7 8 8
9 9 9 12 12 11 11 12 14 13 14 14 14 14 14 14 14 15 15 16 16 16 18 16 14 13 12 13 14 13 13 13 13 15 15 15 12 14 13 12 12 10 11 10 9 11 10 9 8 7 6 6 7 7 7 7 7 6 7 7 7 8 8
8 10 12 12 11 11 15 13 11 11 13 12 13 14 14 13 14 14 14 15 15 15 15 15 13 13 12 13 13 13 15 14 14 16 17 15 14 15 15 13 12 11 10 11 10 9 8 9 9 8 7 7 8 9 8 6 7 7 8 8 7 7 7
9 10 11 13 13 10 8 10 14 15 14 14 15 14 13 14 14 14 13 14 15 14 13 13 12 12 12 13 13 12 14 15 16 16 16 14 12 11 10 11 11 12 12 10 10 10 8 7 8 7 8 7 7 8 7 7 7 7 8 7 7 7 7
5 7 9 9 10 13 15 13 12 14 15 14 13 12 11 12 12 12 12 13 13 13 12 11 12 12 12 13 13 13 14 14 13 13 12 9 9 9 11 10 10 10 9 9 11 8 7 7 7 6 7 7 8 7 6 7 7 8 7 7 6 6 7
12 12 11 14 14 13 13 14 13 14 14 13 13 13 13 12 11 11 11 12 12 13 14 12 12 13 13 12 12 13 13 10 9 9 8 11 13 12 8 8 10 11 10 7 6 6 8 7 6 8 7 6 6 6 6 7 7 6 6 6 7 7 7
12 13 14 15 15 15 13 13 13 13 13 12 14 14 13 12 12 13 13 13 12 12 13 11 12 12 12 13 13 11 10 10 9 10 11 12 13 13 14 11 10 9 9 13 11 9 6 7 6 6 5 5 6 6 6 7 6 8 12 9 7 7 7
13 14 14 12 10 12 12 12 12 12 13 13 14 15 13 11 11 10 12 12 13 13 12 11 11 11 11 13 12 11 10 11 12 11 13 14 12 10 10 15 13 12 12 11 10 8 6 7 6 6 7 8 8 8 7 7 6 11 12 13 14 9 7
12 12 13 12 11 11 11 12 13 13 14 15 14 13 12 11 11 11 12 11 12 13 12 12 13 13 12 11 10 11 12 12 12 12 13 13 14 13 10 10 9 12 14 10 9 7 7 7 8 9 8 7 8 8 7 7 9 12 13 14 15 13 9
13 12 12 12 13 13 14 15 15 15 14 12 12 13 13 11 11 11 12 12 12 11 11 12 12 11 11 11 11 12 11 11 12 12 12 13 13 12 8 8 8 6 11 12 10 6 7 8 8 9 8 7 8 9 8 9 9 13 14 15 15 15 11
9 11 11 12 13 13 13 10 9 10 11 11 11 11 11 13 13 12 11 10 9 11 10 11 11 11 11 10 11 11 10 10 11 11 12 12 11 10 12 11 11 8 5 8 8 8 8 10 11 9 8 8 7 7 8 10 10 13 15 15 14 11 8
3 8 10 11 10 10 9 9 9 9 8 10 12 11 11 10 9 8 8 9 10 10 10 10 10 10 9 10 9 9 10 10 11 11 11 13 14 13 15 13 11 11 9 9 10 10 11 11 11 9 9 9 8 9 9 9 11 13 14 13 10 9 8
10 10 11 11 12 11 12 13 13 13 12 10 9 9 10 10 9 9 9 9 9 9 9 9 9 9 8 8 9 10 10 12 12 14 11 12 11 11 10 11 12 11 10 11 11 10 9 9 9 9 9 9 9 9 10 10 12 12 12 10 9 9 6
10 10 6 6 9 11 10 10 10 9 8 8 8 9 8 8 9 9 8 9 8 8 8 9 9 8 8 8 9 10 11 12 14 13 12 12 12 13 12 12 11 11 11 12 12 11 11 10 10 9 9 9 9 10 10 9 9 12 11 11 11 8 6
8 8 9 9 5 7 7 7 7 7 7 8 6 4 5 7 8 8 8 8 7 8 8 8 8 7 8 9 9 11 11 12 12 12 12 12 14 13 11 10 9 10 11 12 12 12 12 10 9 9 9 9 10 10 10 10 9 12 11 11 12 10 7
8 9 9 8 9 10 9 8 9 9 9 8 7 5 6 7 8 7 7 6 6 6 7 7 6 7 8 8 9 10 11 11 12 12 12 12 12 12 13 12 11 10 9 11 11 11 9 9 8 8 7 8 10 9 11 10 6 12 11 12 12 10 7
10 11 11 11 11 10 11 11 12 10 9 8 7 7 8 8 7 7 6 5 5 5 5 5 6 6 7 8 9 10 10 10 12 11 12 11 10 9 10 10 9 10 9 10 11 10 9 8 7 8 7 7 8 8 9 9 4 8 10 11 11 13 7
10 11 13 13 12 12 11 9 9 10 9 7 6 6 6 7 7 7 6 5 5 5 4 5 6 7 8 8 9 10 11 10 11 12 10 9 8 7 8 8 9 9 10 10 10 10 8 8 6 7 7 6 7 7 8 5 5 5 9 10 11 10 4
14 15 14 14 12 12 11 10 10 10 9 7 7 6 6 7 8 7 6 5 5 5 5 6 7 7 8 8 9 10 10 10 10 11 9 8 8 8 8 7 7 8 10 9 9 9 8 6 5 6 7 6 6 6 4 8 11 9 7 7 7 7 6
14 14 14 13 11 8 11 10 10 9 9 7 7 5 5 7 8 7 6 4 5 5 6 6 7 8 8 9 9 10 10 11 13 13 8 9 10 9 8 6 7 8 9 9 9 8 6 6 6 6 7 8 5 4 7 5 6 6 6 7 7 8 8
10 9 10 10 10 8 11 11 9 9 8 7 6 6 5 5 7 6 6 6 6 6 6 7 7 8 8 9 9 10 10 11 12 13 10 10 9 9 9 10 10 10 10 9 8 6 6 5 6 7 8 7 5 7 6 4 3 6 5 7 8 8 8
12 12 11 11 11 10 10 9 9 9 9 7 7 5 5 5 6 7 7 6 6 7 7 7 8 8 8 8 9 9 10 11 11 12 11 11 11 10 10 12 11 10 9 7 7 7 5 5 5 6 7 7 6 7 6 6 5 5 5 6 8 8 7
10 10 10 10 11 10 9 8 9 10 9 7 5 5 5 5 5 6 5 6 6 6 6 7 8 8 8 8 9 9 10 11 12 12 12 12 11 11 9 11 12 11 9 7 7 6 5 5 5 6 6 5 4 6 6 7 6 6 5 6 7 5 7
8 7 8 10 8 9 8 7 8 8 8 7 5 4 4 4 3 3 6 6 6 7 7 7 7 8 8 8 8 8 9 10 10 11 12 13 11 10 10 10 10 10 9 9 7 5 5 5 5 4 4 5 5 6 7 7 6 6 6 7 7 6 6
8 8 8 6 5 6 7 7 7 7 7 6 5 4 4 4 4 4 6 6 6 7 7 7 7 7 8 9 8 8 9 9 12 12 10 10 10 10 9 9 9 9 9 7 5 5 5 5 6 6 6 7 6 6 6 7 6 7 8 8 7 6 5
8 7 7 6 5 5 5 5 6 5 4 4 4 4 4 4 4 6 7 6 6 7 7 7 8 7 8 8 8 8 8 9 10 10 9 6 4 6 6 4 1 1 2 2 1 4 5 6 6 6 6 6 5 5 5 5 7 8 8 6 5 5 6
8 8 8 6 4 5 5 5 4 4 3 3 4 4 5 5 5 5 6 6 6 7 8 7 7 7 7 7 8 8 9 8 8 7 5 5 4 4 5 10 9 6 4 1 6 9 9 6 2 2 3 5 3 0 3 4 1 12 12 10 9 7 8
7 7 6 4 3 3 4 3 2 2 4 4 5 5 5 5 4 4 5 5 6 8 7 7 6 6 6 7 7 8 8 8 7 6 5 5 5 4 4 4 6 13 12 9 7 6 7 4 5 7 8 3 3 5 11 10 11 11 11 11 9 9 9
9 8 6 4 4 2 2 2 3 4 5 4 5 5 5 5 4 5 5 6 7 7 7 7 7 6 6 7 6 6 7 7 6 7 7 5 5 5 4 4 4 5 11 12 9 9 7 6 6 3 3 4 5 6 5 7 8 11 10 10 10 9 9
Wind_Direction
207 207 204 200 196 199 198 196 196 195 188 186 190 192 191 189 190 185 190 191 196 199 193 189 191 193 198 201 202 201 201 198 191 190 187 196 194 181 184 185 180 177 177 181 188 185 185 174 179 189 190 193 200 199 200 200 204 209 211 211 221 226 235
200 202 203 201 202 204 201 196 193 195 191 188 189 190 191 189 187 192 194 193 195 196 191 189 192 197 198 199 199 200 199 197 188 186 190 191 185 178 179 177 180 181 182 187 182 180 176 176 184 186 187 191 202 198 201 205 210 214 220 215 222 228 229
198 200 201 199 202 203 197 193 193 193 190 191 191 189 191 191 190 193 191 191 194 195 191 190 194 197 197 199 200 201 197 191 187 191 193 190 182 179 179 179 183 181 187 186 178 177 180 179 181 182 184 190 198 197 205 209 212 218 223 223 226 232 233
194 196 197 196 196 195 191 192 193 192 192 191 190 191 194 194 192 191 190 191 191 191 195 196 195 197 197 200 204 201 195 190 187 191 192 184 172 171 176 183 182 181 180 187 184 178 177 180 179 178 182 190 195 201 208 216 217 216 219 222 230 234 238
196 196 195 196 200 198 196 196 197 194 193 193 193 192 193 192 187 188 192 194 193 195 199 195 194 198 202 204 204 196 187 187 186 190 187 178 172 170 179 181 181 187 188 183 176 171 173 179 179 180 184 191 199 203 211 214 218 211 216 216 231 234 242
193 190 193 194 194 194 193 197 197 193 190 191 193 193 196 192 191 196 196 192 196 199 194 192 194 196 202 205 202 187 178 184 185 185 180 174 174 178 181 179 180 185 182 180 171 180 174 175 175 177 186 195 205 211 215 215 217 212 213 216 231 243 249
190 192 191 191 193 194 195 197 196 194 193 195 195 193 193 194 196 199 196 196 195 193 193 198 202 202 208 201 197 184 181 188 187 185 179 176 177 179 182 179 180 180 177 164 174 169 170 163 166 167 186 188 199 211 211 214 215 205 207 217 234 239 247
190 189 191 190 193 193 196 192 189 189 189 190 189 191 192 195 197 196 196 199 197 199 198 202 203 205 207 198 186 186 188 190 186 180 178 179 179 184 181 174 178 174 163 173 171 166 162 159 152 181 187 185 193 204 212 211 213 210 204 217 229 239 237
196 191 190 195 196 197 192 184 181 183 182 184 186 189 192 194 195 194 197 198 197 197 201 203 205 205 198 184 177 187 188 182 180 179 179 181 180 185 175 175 171 165 170 170 162 165 159 171 175 172 173 177 181 203 216 218 217 208 204 215 225 234 236
187 191 193 192 195 191 182 172 172 174 178 181 187 190 192 193 194 196 200 200 199 202 204 205 208 204 191 183 187 188 183 183 184 183 186 188 184 182 177 171 159 160 169 159 144 163 186 185 158 164 170 178 170 201 219 220 220 216 213 219 224 230 236
192 190 182 189 189 178 165 172 178 181 183 186 190 191 190 190 190 194 197 198 200 204 205 206 207 204 193 188 188 185 185 187 184 185 189 190 183 179 164 163 163 168 168 161 176 185 177 174 157 185 181 176 180 201 215 220 217 219 223 222 224 229 234
190 185 190 188 179 169 182 180 173 176 183 188 190 192 190 191 194 197 198 200 203 207 206 207 205 203 192 190 188 185 190 190 188 191 191 185 179 174 174 168 163 165 164 173 182 192 179 171 166 163 181 200 194 199 210 207 211 218 225 227 225 225 230
197 191 184 186 181 176 150 164 183 184 184 190 192 194 192 192 195 197 197 199 203 207 204 202 200 197 193 191 193 189 194 193 192 193 192 178 167 163 167 164 165 168 171 177 184 180 177 182 165 164 173 200 207 209 198 202 214 220 222 226 230 229 229
195 190 188 171 171 175 184 180 175 180 185 188 192 190 188 192 193 193 195 198 201 202 199 197 195 191 192 192 196 195 199 199 193 190 183 155 127 166 176 166 166 169 166 174 183 175 167 188 188 169 184 196 206 205 200 210 222 225 224 224 227 227 229
199 194 184 184 187 182 172 176 178 180 182 188 187 187 190 190 192 193 195 200 200 200 204 201 193 195 195 193 196 201 199 190 180 178 147 145 172 180 146 161 176 172 164 159 170 171 185 195 203 199 195 191 197 211 215 216 223 219 215 217 225 225 227
198 193 190 192 188 181 179 177 173 177 178 179 184 187 188 189 189 191 194 198 197 198 204 191 192 194 194 196 202 198 187 181 174 169 159 164 185 180 164 164 188 168 159 170 176 175 180 195 207 212 205 192 187 204 220 224 224 229 226 218 226 220 220
196 194 196 192 175 174 174 172 171 171 175 181 186 188 188 187 185 184 196 197 198 198 198 190 193 194 193 199 198 190 183 183 185 173 174 179 177 164 172 173 165 176 174 167 162 165 168 185 190 199 209 198 196 203 214 225 228 225 221 218 221 226 225
197 193 191 182 170 166 164 172 171 175 182 185 185 182 182 179 180 183 197 191 195 199 194 193 197 196 197 197 188 189 189 189 181 175 177 176 177 177 167 180 180 181 167 148 145 164 174 196 203 212 205 204 203 210 218 227 227 221 214 213 214 216 226
196 190 182 170 170 173 176 178 180 180 180 180 178 182 184 171 173 188 191 193 194 187 188 190 195 193 194 192 189 193 192 184 180 175 177 174 177 173 165 164 168 192 164 166 178 168 192 207 209 214 207 206 208 217 225 237 217 210 212 212 212 215 223
195 181 176 176 179 179 176 168 166 173 174 172 174 174 166 177 187 192 188 185 177 183 188 189 195 193 193 186 189 190 185 180 177 173 177 174 171 170 177 172 178 194 157 147 172 196 211 213 213 208 207 209 213 227 240 242 220 206 211 213 213 207 204
181 175 174 170 169 167 154 154 150 153 158 170 176 178 178 186 189 174 173 177 181 186 184 192 193 193 188 183 181 177 177 178 175 174 173 171 174 171 181 176 179 169 160 177 194 201 209 215 211 209 212 214 216 225 235 239 220 207 211 215 208 185 197
180 182 187 181 165 156 157 164 165 170 178 175 167 171 179 181 174 170 170 172 178 180 186 188 193 189 179 173 172 176 177 181 183 193 172 173 166 163 163 174 179 172 179 194 206 212 217 219 221 217 216 218 222 231 237 239 209 207 210 207 198 178 206
173 173 155 146 158 160 164 166 166 164 142 147 166 169 177 159 159 158 153 166 176 173 181 185 190 186 172 172 172 178 176 181 190 185 173 178 172 172 171 173 175 180 185 198 208 213 215 221 218 218 221 222 222 228 236 243 202 193 192 193 192 181 214
128 135 146 153 127 119 117 108 106 112 142 150 147 135 131 135 147 147 152 161 162 171 177 184 188 174 169 175 173 177 174 177 176 172 179 179 181 176 169 173 183 186 189 200 209 215 217 216 218 220 223 223 229 227 232 240 194 175 180 190 184 196 208
122 115 114 117 129 128 118 110 114 116 112 119 113 109 116 122 130 137 143 148 155 168 175 182 175 169 172 172 168 173 171 177 175 178 183 184 179 172 171 181 190 194 191 203 213 219 219 218 223 226 226 229 237 229 234 244 188 166 179 187 185 198 209
110 108 101 96 90 94 98 104 102 99 102 102 97 103 109 117 125 123 125 131 147 166 175 172 167 163 162 161 163 169 171 173 173 180 186 182 173 159 170 181 189 196 200 211 220 220 221 222 227 235 238 239 236 236 232 236 201 167 185 187 189 197 201
91 101 104 100 97 97 93 86 89 95 99 102 109 110 117 124 115 107 107 124 144 165 167 155 147 151 154 157 163 169 171 172 179 180 182 176 157 152 181 189 195 198 210 214 216 219 224 227 233 244 247 237 235 235 231 214 146 146 184 189 199 204 184
95 87 88 95 101 104 103 102 101 101 93 95 106 112 120 119 110 114 123 134 161 163 147 147 150 153 158 169 169 167 171 173 174 181 177 156 154 174 195 197 201 207 211 212 214 216 226 230 232 242 247 234 224 235 196 121 157 191 173 173 180 172 176
109 113 118 117 110 119 119 107 100 97 103 104 104 110 114 112 109 114 127 154 159 150 151 149 150 157 166 175 178 179 178 183 182 186 176 160 172 185 196 192 200 205 205 205 210 214 212 222 228 236 245 248 226 155 136 181 186 116 135 165 174 174 189
83 86 84 79 84 88 90 95 98 101 99 102 107 107 107 117 116 134 151 156 151 149 145 147 155 166 172 176 179 178 182 182 183 188 179 168 175 189 192 200 203 204 200 198 200 199 210 213 228 239 246 241 184 150 162 157 134 136 158 174 174 172 175
65 66 65 69 72 68 67 85 100 101 95 94 104 115 130 148 145 155 157 147 152 151 149 150 156 170 175 179 179 180 180 181 184 188 183 183 186 192 195 204 200 199 194 188 198 205 208 208 210 221 234 232 197 168 163 167 165 164 163 176 174 175 175
77 83 90 93 88 81 91 94 92 93 96 99 114 131 154 168 169 157 140 142 151 151 153 155 159 173 180 178 181 182 180 182 188 192 191 189 195 198 196 200 201 200 194 196 204 208 208 211 213 220 227 222 166 147 160 164 172 172 163 174 170 178 185
59 62 77 86 103 118 115 113 107 108 116 122 139 156 164 170 162 126 130 148 156 159 160 164 164 169 175 177 177 180 185 186 188 192 197 201 203 205 206 203 202 205 205 207 203 186 203 213 207 205 212 219 188 183 177 169 175 189 183 179 179 180 161
46 54 51 61 90 103 103 103 110 121 128 136 155 164 165 163 161 148 154 157 164 158 161 167 170 170 171 175 175 181 188 190 190 194 199 203 205 205 204 203 208 208 208 198 178 190 199 212 209 213 217 225 211 188 166 178 187 199 196 188 187 180 179
43 42 50 50 43 43 64 86 93 107 122 129 150 169 171 174 172 169 164 163 161 160 171 171 169 169 166 174 181 182 186 195 193 197 201 185 100 53 38 23 16 251 165 60 225 225 217 208 215 219 223 222 213 193 184 179 194 203 193 170 158 166 180
40 41 41 41 38 44 56 64 90 120 143 155 173 182 186 180 176 169 170 161 166 172 175 168 165 167 168 175 184 185 188 195 191 185 156 142 124 119 88 66 64 28 354 93 28 5 2 351 265 293 232 216 199 247 234 244 161 107 123 120 115 90 72
47 50 58 53 65 69 72 84 120 149 182 189 187 189 187 182 171 167 171 171 180 184 176 166 163 172 179 179 188 188 186 186 178 140 136 135 143 153 146 146 85 59 45 31 26 19 20 17 326 323 334 297 196 81 51 65 100 121 130 128 129 124 118
52 46 42 41 40 62 115 138 172 198 207 199 199 195 188 182 174 173 178 185 189 187 179 175 172 179 182 182 176 156 179 182 167 150 145 145 151 151 158 145 131 97 48 37 40 52 58 67 72 80 105 90 108 128 91 72 106 130 135 132 132 132 127